Location: Little Arabia
(41.4620°N, 81.7687°W)
Time: 20:46:56
(UTC+00:00)

USA 307 - Pass Details

Date: 29 October 2020
Orbit: 569 x 579 km, 54.0° (Epoch: 30 November)

Event Time Altitude Azimuth Distance (km) Brightness Sun altitude
Rises 23:25:45 0° 313° (NW) 2,789 7.0 -11.9°
Reaches altitude 10° 23:28:10 10° 322° (NW) 1,886 6.0 -12.3°
Maximum altitude 23:32:08 36° 29° (NNE) 924 3.7 -13.1°
Enters shadow 23:34:17 22° 81° (E) 1,281 4.0 -13.5°
